Location: Beneden-Haastrecht
(52.0012°N, 4.7557°E)
Time: 03:31:40
(UTC+00:00)

H-2A R/B - Pass Details

Date: 24 October 2020
Orbit: 733 x 837 km, 98.2° (Epoch: 24 November)

Event Time Altitude Azimuth Distance (km) Brightness Sun altitude
Rises 18:53:00 0° 175° (S) 3,341 5.2 -23.0°
Reaches altitude 10° 18:55:22 10° 179° (S) 2,423 4.5 -23.3°
Maximum altitude 19:00:41 60° 259° (W) 956 2.7 -24.2°
Drops below altitude 10° 19:06:07 10° 339° (NNW) 2,464 5.0 -25.0°
Sets 19:08:32 0° 344° (NNW) 3,402 5.7 -25.3°
